| time (UTC) | temp F | wind direction | speed MPH | gust MPH | rain 1hr in | rain 24hr in | rain mn in | humidity % | barometer mb |
| 20260906152326 | 95 | 106 | 0.0 | 0.0 | 0.00 | 0.00 | 0.00 | 59 | 1014.3 |
| 20260906151825 | 96 | 75 | 1.0 | 2.0 | 0.00 | 0.00 | 0.00 | 58 | 1014.2 |
| 20260906151321 | 94 | 100 | 0.0 | 1.0 | 0.00 | 0.00 | 0.00 | 59 | 1014.1 |
| 20260906150817 | 95 | 338 | 0.0 | 1.0 | 0.00 | 0.00 | 0.00 | 62 | 1014.0 |
| 20260906150312 | 94 | 67 | 1.0 | 1.0 | 0.00 | 0.00 | 0.00 | 63 | 1014.0 |
| 20260906145812 | 93 | 45 | 1.0 | 2.0 | 0.00 | 0.00 | 0.00 | 64 | 1014.1 |
| 20260906145310 | 92 | 35 | 1.0 | 1.0 | 0.00 | 0.00 | 0.00 | 64 | 1014.2 |
| 20260906144805 | 93 | 91 | 1.0 | 1.0 | 0.00 | 0.00 | 0.00 | 64 | 1014.1 |
| 20260906144300 | 92 | 93 | 0.0 | 1.0 | 0.00 | 0.00 | 0.00 | 65 | 1014.1 |
| 20260906143759 | 91 | 63 | 1.0 | 2.0 | 0.00 | 0.00 | 0.00 | 67 | 1014.1 |
| 20260906143257 | 90 | 59 | 1.0 | 2.0 | 0.00 | 0.00 | 0.00 | 68 | 1014.1 |
| 20260906142756 | 90 | 74 | 0.0 | 1.0 | 0.00 | 0.00 | 0.00 | 69 | 1014.2 |
| 20260906142251 | 90 | 98 | 0.0 | 1.0 | 0.00 | 0.00 | 0.00 | 68 | 1014.1 |
| 20260906141749 | 89 | 91 | 0.0 | 1.0 | 0.00 | 0.00 | 0.00 | 68 | 1014.0 |
| 20260906141239 | 88 | 86 | 1.0 | 2.0 | 0.00 | 0.00 | 0.00 | 70 | 1013.9 |
| 20260906140739 | 88 | 54 | 0.0 | 1.0 | 0.00 | 0.00 | 0.00 | 71 | 1014.1 |
| 20260906140234 | 88 | 47 | 1.0 | 1.0 | 0.00 | 0.00 | 0.00 | 70 | 1014.2 |
| 20260906135730 | 88 | 87 | 0.0 | 2.0 | 0.00 | 0.00 | 0.00 | 71 | 1014.0 |
| 20260906135227 | 89 | 109 | 1.0 | 1.0 | 0.00 | 0.00 | 0.00 | 69 | 1014.2 |
| 20260906134722 | 88 | 111 | 0.0 | 0.0 | 0.00 | 0.00 | 0.00 | 70 | 1014.2 |
| 20260906134217 | 88 | 112 | 0.0 | 1.0 | 0.00 | 0.00 | 0.00 | 70 | 1014.2 |
| 20260906133713 | 87 | 112 | 0.0 | 0.0 | 0.00 | 0.00 | 0.00 | 72 | 1014.3 |
| 20260906133208 | 86 | 112 | 0.0 | 0.0 | 0.00 | 0.00 | 0.00 | 74 | 1014.1 |
| 20260906132703 | 86 | 112 | 0.0 | 0.0 | 0.00 | 0.00 | 0.00 | 75 | 1014.2 |
| 20260906132159 | 85 | 112 | 0.0 | 0.0 | 0.00 | 0.00 | 0.00 | 76 | 1014.1 |
| 20260906131654 | 84 | 112 | 0.0 | 1.0 | 0.00 | 0.00 | 0.00 | 77 | 1014.1 |
| 20260906131149 | 83 | 126 | 0.0 | 1.0 | 0.00 | 0.00 | 0.00 | 78 | 1014.0 |
| 20260906130644 | 83 | 194 | 0.0 | 0.0 | 0.00 | 0.00 | 0.00 | 79 | 1013.9 |
| 20260906130139 | 84 | 193 | 0.0 | 0.0 | 0.00 | 0.00 | 0.00 | 78 | 1013.8 |
| 20260906125636 | 82 | 193 | 0.0 | 0.0 | 0.00 | 0.00 | 0.00 | 78 | 1014.1 |
| 20260906125130 | 80 | 195 | 0.0 | 0.0 | 0.00 | 0.00 | 0.00 | 82 | 1013.8 |
| 20260906124626 | 79 | 195 | 0.0 | 0.0 | 0.00 | 0.00 | 0.00 | 85 | 1013.6 |
| 20260906124121 | 79 | 194 | 0.0 | 1.0 | 0.00 | 0.00 | 0.00 | 85 | 1013.5 |
| 20260906123620 | 79 | 197 | 0.0 | 0.0 | 0.00 | 0.00 | 0.00 | 85 | 1013.6 |
| 20260906123115 | 78 | 197 | 0.0 | 0.0 | 0.00 | 0.00 | 0.00 | 85 | 1013.6 |
| 20260906122614 | 78 | 197 | 0.0 | 0.0 | 0.00 | 0.00 | 0.00 | 86 | 1013.6 |
| 20260906122110 | 78 | 197 | 0.0 | 0.0 | 0.00 | 0.00 | 0.00 | 86 | 1013.6 |
| 20260906121606 | 78 | 197 | 1.0 | 1.0 | 0.00 | 0.00 | 0.00 | 87 | 1013.4 |
| 20260906121103 | 77 | 198 | 0.0 | 0.0 | 0.00 | 0.00 | 0.00 | 88 | 1013.4 |
| 20260906120557 | 77 | 198 | 0.0 | 0.0 | 0.00 | 0.00 | 0.00 | 88 | 1013.3 |
| 20260906120054 | 77 | 198 | 0.0 | 0.0 | 0.00 | 0.00 | 0.00 | 87 | 1013.3 |
| 20260906115549 | 78 | 198 | 0.0 | 0.0 | 0.00 | 0.00 | 0.00 | 87 | 1013.3 |
| 20260906115044 | 78 | 197 | 0.0 | 0.0 | 0.00 | 0.00 | 0.00 | 86 | 1013.2 |
| 20260906114538 | 78 | 197 | 0.0 | 1.0 | 0.00 | 0.00 | 0.00 | 86 | 1013.2 |
| 20260906114034 | 78 | 224 | 0.0 | 0.0 | 0.00 | 0.00 | 0.00 | 85 | 1012.9 |
| 20260906113532 | 78 | 224 | 0.0 | 0.0 | 0.00 | 0.00 | 0.00 | 85 | 1012.9 |
| 20260906113028 | 78 | 224 | 0.0 | 0.0 | 0.00 | 0.00 | 0.00 | 86 | 1013.0 |
| 20260906112523 | 79 | 224 | 0.0 | 0.0 | 0.00 | 0.00 | 0.00 | 85 | 1013.1 |
| 20260906112019 | 78 | 224 | 0.0 | 0.0 | 0.00 | 0.00 | 0.00 | 86 | 1012.9 |
| 20260906111519 | 78 | 225 | 0.0 | 0.0 | 0.00 | 0.00 | 0.00 | 86 | 1012.8 |
| 20260906111014 | 78 | 226 | 0.0 | 0.0 | 0.00 | 0.00 | 0.00 | 85 | 1012.8 |
| 20260906110509 | 79 | 225 | 0.0 | 0.0 | 0.00 | 0.00 | 0.00 | 85 | 1012.7 |
| 20260906110008 | 79 | 225 | 0.0 | 0.0 | 0.00 | 0.00 | 0.00 | 84 | 1012.9 |
| 20260906105503 | 79 | 225 | 0.0 | 0.0 | 0.00 | 0.00 | 0.00 | 84 | 1012.7 |
| 20260906104959 | 79 | 225 | 0.0 | 0.0 | 0.00 | 0.00 | 0.00 | 83 | 1012.6 |
| 20260906104458 | 79 | 225 | 0.0 | 0.0 | 0.00 | 0.00 | 0.00 | 84 | 1012.6 |
| 20260906103957 | 79 | 226 | 0.0 | 0.0 | 0.00 | 0.00 | 0.00 | 85 | 1012.6 |
| 20260906103456 | 79 | 223 | 0.0 | 0.0 | 0.00 | 0.00 | 0.00 | 84 | 1012.6 |
| 20260906102951 | 79 | 223 | 0.0 | 0.0 | 0.00 | 0.00 | 0.00 | 85 | 1012.8 |
| 20260906102450 | 79 | 223 | 0.0 | 0.0 | 0.00 | 0.00 | 0.00 | 85 | 1012.6 |
| 20260906101945 | 78 | 224 | 0.0 | 0.0 | 0.00 | 0.00 | 0.00 | 87 | 1012.7 |
| 20260906101440 | 78 | 224 | 0.0 | 0.0 | 0.00 | 0.00 | 0.00 | 86 | 1012.8 |
| 20260906100935 | 78 | 224 | 0.0 | 0.0 | 0.00 | 0.00 | 0.00 | 86 | 1012.6 |
| 20260906100430 | 79 | 224 | 0.0 | 0.0 | 0.00 | 0.00 | 0.00 | 86 | 1012.4 |
| 20260906095924 | 79 | 224 | 0.0 | 0.0 | 0.00 | 0.00 | 0.00 | 85 | 1012.5 |
| 20260906095420 | 79 | 224 | 0.0 | 0.0 | 0.00 | 0.00 | 0.00 | 85 | 1012.5 |
| 20260906094914 | 79 | 224 | 0.0 | 0.0 | 0.00 | 0.00 | 0.00 | 85 | 1012.3 |
| 20260906094408 | 79 | 224 | 0.0 | 0.0 | 0.00 | 0.00 | 0.00 | 85 | 1012.4 |
| 20260906093859 | 79 | 224 | 0.0 | 0.0 | 0.00 | 0.00 | 0.00 | 85 | 1012.5 |
| 20260906093355 | 80 | 224 | 0.0 | 0.0 | 0.00 | 0.00 | 0.00 | 84 | 1012.4 |
| 20260906092855 | 80 | 224 | 0.0 | 0.0 | 0.00 | 0.00 | 0.00 | 83 | 1012.4 |
| 20260906092349 | 80 | 224 | 0.0 | 0.0 | 0.00 | 0.00 | 0.00 | 82 | 1012.2 |
| 20260906091844 | 80 | 224 | 0.0 | 0.0 | 0.00 | 0.00 | 0.00 | 83 | 1012.3 |
| 20260906091340 | 80 | 224 | 0.0 | 0.0 | 0.00 | 0.00 | 0.00 | 83 | 1012.2 |
| 20260906090837 | 80 | 224 | 0.0 | 0.0 | 0.00 | 0.00 | 0.00 | 83 | 1012.3 |
| 20260906090336 | 80 | 224 | 0.0 | 0.0 | 0.00 | 0.00 | 0.00 | 82 | 1012.2 |
| 20260906085831 | 80 | 229 | 0.0 | 0.0 | 0.00 | 0.00 | 0.00 | 81 | 1012.2 |
| 20260906085329 | 81 | 228 | 0.0 | 0.0 | 0.00 | 0.00 | 0.00 | 80 | 1012.1 |
| 20260906084824 | 81 | 227 | 0.0 | 0.0 | 0.00 | 0.00 | 0.00 | 79 | 1012.2 |
| 20260906084324 | 81 | 221 | 0.0 | 1.0 | 0.00 | 0.00 | 0.00 | 79 | 1012.1 |
| 20260906083818 | 81 | 220 | 0.0 | 0.0 | 0.00 | 0.00 | 0.00 | 80 | 1011.9 |
| 20260906083314 | 81 | 220 | 0.0 | 1.0 | 0.00 | 0.00 | 0.00 | 79 | 1012.0 |
| 20260906082809 | 81 | 220 | 0.0 | 0.0 | 0.00 | 0.00 | 0.00 | 79 | 1011.9 |
| 20260906082306 | 81 | 221 | 0.0 | 0.0 | 0.00 | 0.00 | 0.00 | 79 | 1011.9 |
| 20260906081800 | 80 | 221 | 0.0 | 0.0 | 0.00 | 0.00 | 0.00 | 81 | 1011.8 |
| 20260906081255 | 80 | 221 | 0.0 | 0.0 | 0.00 | 0.00 | 0.00 | 81 | 1011.9 |
| 20260906080752 | 80 | 221 | 0.0 | 0.0 | 0.00 | 0.00 | 0.00 | 81 | 1012.0 |
| 20260906080248 | 80 | 221 | 0.0 | 0.0 | 0.00 | 0.00 | 0.00 | 81 | 1012.0 |
| 20260906075742 | 81 | 221 | 0.0 | 0.0 | 0.00 | 0.00 | 0.00 | 80 | 1011.9 |
| 20260906075242 | 81 | 221 | 0.0 | 0.0 | 0.00 | 0.00 | 0.00 | 80 | 1012.2 |
| 20260906074737 | 81 | 221 | 0.0 | 0.0 | 0.00 | 0.00 | 0.00 | 79 | 1011.9 |
| 20260906074236 | 81 | 221 | 0.0 | 0.0 | 0.00 | 0.00 | 0.00 | 79 | 1012.2 |
| 20260906073736 | 81 | 221 | 0.0 | 0.0 | 0.00 | 0.00 | 0.00 | 79 | 1012.1 |
| 20260906073231 | 81 | 223 | 0.0 | 0.0 | 0.00 | 0.00 | 0.00 | 79 | 1012.1 |
| 20260906072727 | 81 | 212 | 0.0 | 1.0 | 0.00 | 0.00 | 0.00 | 79 | 1012.1 |
| 20260906072222 | 81 | 222 | 0.0 | 0.0 | 0.00 | 0.00 | 0.00 | 80 | 1012.2 |
| 20260906071718 | 82 | 222 | 0.0 | 0.0 | 0.00 | 0.00 | 0.00 | 79 | 1012.1 |
| 20260906071218 | 81 | 221 | 0.0 | 0.0 | 0.00 | 0.00 | 0.00 | 79 | 1012.3 |
| 20260906070715 | 81 | 222 | 0.0 | 0.0 | 0.00 | 0.00 | 0.00 | 80 | 1012.3 |
| 20260906070210 | 81 | 221 | 0.0 | 0.0 | 0.00 | 0.00 | 0.00 | 82 | 1012.4 |
| 20260906065710 | 81 | 221 | 0.0 | 0.0 | 0.00 | 0.00 | 0.00 | 82 | 1012.5 |
| 20260906065205 | 81 | 221 | 0.0 | 0.0 | 0.00 | 0.00 | 0.00 | 81 | 1012.4 |
| 20260906064701 | 81 | 221 | 0.0 | 0.0 | 0.00 | 0.00 | 0.00 | 80 | 1012.5 |
| 20260906064155 | 81 | 221 | 0.0 | 0.0 | 0.00 | 0.00 | 0.00 | 80 | 1012.5 |
| 20260906063651 | 81 | 222 | 0.0 | 0.0 | 0.00 | 0.00 | 0.00 | 82 | 1012.4 |
| 20260906063147 | 81 | 222 | 0.0 | 0.0 | 0.00 | 0.00 | 0.00 | 83 | 1012.6 |
| 20260906062642 | 81 | 222 | 0.0 | 0.0 | 0.00 | 0.00 | 0.00 | 82 | 1012.6 |
| 20260906062140 | 81 | 222 | 0.0 | 0.0 | 0.00 | 0.00 | 0.00 | 82 | 1012.6 |
| 20260906061637 | 81 | 222 | 0.0 | 0.0 | 0.00 | 0.00 | 0.00 | 82 | 1012.5 |
| 20260906061137 | 81 | 222 | 0.0 | 0.0 | 0.00 | 0.00 | 0.00 | 82 | 1012.6 |
| 20260906060634 | 82 | 222 | 0.0 | 0.0 | 0.00 | 0.00 | 0.00 | 81 | 1012.6 |
| 20260906060131 | 82 | 221 | 0.0 | 0.0 | 0.00 | 0.00 | 0.00 | 80 | 1012.5 |
| 20260906055626 | 82 | 221 | 0.0 | 0.0 | 0.00 | 0.00 | 0.00 | 78 | 1012.4 |
| 20260906055121 | 82 | 221 | 0.0 | 0.0 | 0.00 | 0.00 | 0.00 | 78 | 1012.2 |
| 20260906054616 | 82 | 221 | 0.0 | 0.0 | 0.00 | 0.00 | 0.00 | 79 | 1012.5 |
| 20260906054111 | 82 | 221 | 0.0 | 0.0 | 0.00 | 0.00 | 0.00 | 79 | 1012.6 |
| 20260906053608 | 83 | 221 | 0.0 | 0.0 | 0.00 | 0.00 | 0.00 | 79 | 1012.6 |
| 20260906053103 | 83 | 221 | 0.0 | 0.0 | 0.00 | 0.00 | 0.00 | 78 | 1012.3 |
| 20260906052558 | 83 | 221 | 0.0 | 0.0 | 0.00 | 0.00 | 0.00 | 77 | 1012.6 |
| 20260906052055 | 83 | 221 | 0.0 | 1.0 | 0.00 | 0.00 | 0.00 | 76 | 1012.6 |
| 20260906051550 | 84 | 221 | 0.0 | 1.0 | 0.00 | 0.00 | 0.00 | 76 | 1012.4 |
| 20260906051046 | 83 | 239 | 0.0 | 0.0 | 0.00 | 0.00 | 0.00 | 76 | 1012.5 |
| 20260906050540 | 84 | 239 | 0.0 | 0.0 | 0.00 | 0.00 | 0.00 | 76 | 1012.2 |
| 20260906050036 | 84 | 239 | 0.0 | 0.0 | 0.00 | 0.00 | 0.00 | 76 | 1012.3 |
| 20260906045534 | 85 | 241 | 0.0 | 0.0 | 0.00 | 0.00 | 0.00 | 74 | 1012.4 |
| 20260906045030 | 85 | 216 | 0.0 | 0.0 | 0.00 | 0.00 | 0.00 | 73 | 1012.4 |
| 20260906044525 | 85 | 217 | 1.0 | 1.0 | 0.00 | 0.00 | 0.00 | 72 | 1012.2 |
| 20260906044021 | 85 | 211 | 0.0 | 0.0 | 0.00 | 0.00 | 0.00 | 74 | 1012.1 |
| 20260906043516 | 85 | 222 | 0.0 | 1.0 | 0.00 | 0.00 | 0.00 | 74 | 1012.1 |
| 20260906043013 | 84 | 227 | 0.0 | 0.0 | 0.00 | 0.00 | 0.00 | 74 | 1012.0 |
| 20260906042511 | 84 | 229 | 0.0 | 0.0 | 0.00 | 0.00 | 0.00 | 75 | 1012.2 |
| 20260906042011 | 84 | 192 | 0.0 | 0.0 | 0.00 | 0.00 | 0.00 | 75 | 1012.2 |
| 20260906041507 | 84 | 192 | 0.0 | 0.0 | 0.00 | 0.00 | 0.00 | 75 | 1012.1 |
| 20260906041007 | 84 | 192 | 0.0 | 0.0 | 0.00 | 0.00 | 0.00 | 75 | 1012.1 |
| 20260906040502 | 84 | 192 | 0.0 | 0.0 | 0.00 | 0.00 | 0.00 | 76 | 1012.1 |
| 20260906035957 | 84 | 192 | 0.0 | 0.0 | 0.00 | 0.00 | 0.00 | 76 | 1012.1 |
| 20260906035453 | 84 | 192 | 0.0 | 0.0 | 0.00 | 0.00 | 0.00 | 77 | 1012.2 |
| 20260906034948 | 84 | 192 | 0.0 | 0.0 | 0.00 | 0.00 | 0.00 | 76 | 1012.3 |
| 20260906034442 | 84 | 192 | 0.0 | 0.0 | 0.00 | 0.00 | 0.00 | 76 | 1012.2 |
| 20260906033932 | 85 | 192 | 0.0 | 0.0 | 0.00 | 0.00 | 0.00 | 75 | 1012.2 |
| 20260906033427 | 85 | 192 | 0.0 | 0.0 | 0.00 | 0.00 | 0.00 | 74 | 1012.2 |
| 20260906032922 | 85 | 192 | 0.0 | 0.0 | 0.00 | 0.00 | 0.00 | 73 | 1012.4 |
| 20260906032419 | 86 | 192 | 0.0 | 0.0 | 0.00 | 0.00 | 0.00 | 72 | 1012.4 |
| 20260906031913 | 86 | 192 | 0.0 | 0.0 | 0.00 | 0.00 | 0.00 | 71 | 1012.3 |
| 20260906031408 | 86 | 192 | 0.0 | 0.0 | 0.00 | 0.00 | 0.00 | 71 | 1012.4 |
| 20260906030903 | 87 | 192 | 0.0 | 0.0 | 0.00 | 0.00 | 0.00 | 69 | 1012.3 |
| 20260906030358 | 87 | 192 | 0.0 | 0.0 | 0.00 | 0.00 | 0.00 | 69 | 1012.2 |
| 20260906025852 | 87 | 192 | 0.0 | 0.0 | 0.00 | 0.00 | 0.00 | 69 | 1012.2 |
| 20260906025346 | 87 | 192 | 0.0 | 0.0 | 0.00 | 0.00 | 0.00 | 70 | 1012.4 |
| 20260906024845 | 87 | 192 | 0.0 | 0.0 | 0.00 | 0.00 | 0.00 | 70 | 1012.6 |
| 20260906024344 | 87 | 192 | 0.0 | 0.0 | 0.00 | 0.00 | 0.00 | 70 | 1012.6 |
| 20260906023840 | 87 | 192 | 0.0 | 0.0 | 0.00 | 0.00 | 0.00 | 70 | 1012.3 |
| 20260906023336 | 87 | 192 | 0.0 | 0.0 | 0.00 | 0.00 | 0.00 | 70 | 1012.4 |
| 20260906022831 | 87 | 192 | 0.0 | 0.0 | 0.00 | 0.00 | 0.00 | 70 | 1012.4 |
| 20260906022326 | 87 | 192 | 0.0 | 0.0 | 0.00 | 0.00 | 0.00 | 70 | 1012.3 |
| 20260906021822 | 87 | 192 | 0.0 | 0.0 | 0.00 | 0.00 | 0.00 | 70 | 1012.2 |
| 20260906021321 | 87 | 192 | 0.0 | 0.0 | 0.00 | 0.00 | 0.00 | 70 | 1012.0 |
| 20260906020816 | 87 | 192 | 0.0 | 0.0 | 0.00 | 0.00 | 0.00 | 70 | 1012.0 |
| 20260906020316 | 87 | 192 | 0.0 | 1.0 | 0.00 | 0.00 | 0.00 | 70 | 1011.9 |
| 20260906015815 | 87 | 192 | 0.0 | 0.0 | 0.00 | 0.00 | 0.00 | 69 | 1011.8 |
| 20260906015314 | 87 | 192 | 0.0 | 0.0 | 0.00 | 0.00 | 0.00 | 70 | 1011.7 |
| 20260906014809 | 87 | 192 | 0.0 | 0.0 | 0.00 | 0.00 | 0.00 | 69 | 1011.8 |
| 20260906014304 | 87 | 192 | 0.0 | 0.0 | 0.00 | 0.00 | 0.00 | 69 | 1011.5 |
| 20260906013800 | 87 | 191 | 0.0 | 0.0 | 0.00 | 0.00 | 0.00 | 69 | 1011.6 |
| 20260906013255 | 88 | 192 | 0.0 | 0.0 | 0.00 | 0.00 | 0.00 | 68 | 1011.8 |
| 20260906012751 | 88 | 210 | 0.0 | 0.0 | 0.00 | 0.00 | 0.00 | 67 | 1011.4 |
| 20260906012245 | 88 | 212 | 0.0 | 0.0 | 0.00 | 0.00 | 0.00 | 67 | 1011.5 |
| 20260906011740 | 88 | 212 | 0.0 | 0.0 | 0.00 | 0.00 | 0.00 | 66 | 1011.5 |
| 20260906011240 | 89 | 212 | 0.0 | 0.0 | 0.00 | 0.00 | 0.00 | 66 | 1011.4 |
| 20260906010735 | 89 | 212 | 0.0 | 0.0 | 0.00 | 0.00 | 0.00 | 66 | 1011.4 |
| 20260906010232 | 89 | 212 | 0.0 | 0.0 | 0.00 | 0.00 | 0.00 | 66 | 1011.4 |
| 20260906005727 | 89 | 212 | 0.0 | 0.0 | 0.00 | 0.00 | 0.00 | 65 | 1011.1 |
| 20260906005226 | 89 | 221 | 0.0 | 0.0 | 0.00 | 0.00 | 0.00 | 66 | 1010.9 |
| 20260906004725 | 90 | 289 | 0.0 | 0.0 | 0.00 | 0.00 | 0.00 | 64 | 1010.9 |
| 20260906004215 | 90 | 323 | 0.0 | 1.0 | 0.00 | 0.00 | 0.00 | 60 | 1011.1 |
| 20260906003710 | 91 | 323 | 0.0 | 0.0 | 0.00 | 0.00 | 0.00 | 61 | 1011.1 |
| 20260906003205 | 91 | 324 | 0.0 | 0.0 | 0.00 | 0.00 | 0.00 | 61 | 1010.9 |
| 20260906002700 | 91 | 324 | 0.0 | 0.0 | 0.00 | 0.00 | 0.00 | 61 | 1010.8 |
| 20260906002155 | 92 | 324 | 0.0 | 0.0 | 0.00 | 0.00 | 0.00 | 60 | 1011.1 |
| 20260906001650 | 92 | 324 | 0.0 | 0.0 | 0.00 | 0.00 | 0.00 | 59 | 1011.0 |
| 20260906001150 | 92 | 324 | 0.0 | 0.0 | 0.00 | 0.00 | 0.00 | 60 | 1011.2 |
| 20260906000645 | 93 | 324 | 0.0 | 0.0 | 0.00 | 0.00 | 0.00 | 59 | 1011.4 |
| 20260906000141 | 93 | 324 | 0.0 | 0.0 | 0.00 | 0.00 | 0.00 | 58 | 1011.2 |
| 20260905235639 | 94 | 324 | 0.0 | 0.0 | 0.00 | 0.00 | 0.00 | 57 | 1011.1 |
| 20260905235135 | 94 | 324 | 0.0 | 0.0 | 0.00 | 0.00 | 0.00 | 56 | 1011.3 |
| 20260905234630 | 95 | 324 | 0.0 | 0.0 | 0.00 | 0.00 | 0.00 | 55 | 1011.2 |
| 20260905234126 | 95 | 324 | 0.0 | 0.0 | 0.00 | 0.00 | 0.00 | 54 | 1011.3 |
| 20260905233620 | 95 | 324 | 0.0 | 0.0 | 0.00 | 0.00 | 0.00 | 53 | 1011.3 |
| 20260905233114 | 95 | 324 | 0.0 | 0.0 | 0.00 | 0.00 | 0.00 | 53 | 1011.2 |
| 20260905232610 | 95 | 324 | 0.0 | 0.0 | 0.00 | 0.00 | 0.00 | 54 | 1011.3 |
| 20260905232106 | 95 | 324 | 0.0 | 0.0 | 0.00 | 0.00 | 0.00 | 53 | 1011.3 |
| 20260905231600 | 95 | 324 | 0.0 | 0.0 | 0.00 | 0.00 | 0.00 | 53 | 1011.2 |
| 20260905231057 | 96 | 324 | 0.0 | 0.0 | 0.00 | 0.00 | 0.00 | 52 | 1011.2 |
| 20260905230556 | 96 | 324 | 0.0 | 0.0 | 0.00 | 0.00 | 0.00 | 52 | 1011.1 |
| 20260905230054 | 96 | 324 | 0.0 | 0.0 | 0.00 | 0.00 | 0.00 | 51 | 1011.2 |
| 20260905225549 | 96 | 324 | 0.0 | 1.0 | 0.00 | 0.00 | 0.00 | 51 | 1011.3 |
| 20260905225044 | 96 | 222 | 0.0 | 0.0 | 0.00 | 0.00 | 0.00 | 51 | 1011.2 |
| 20260905224543 | 96 | 212 | 0.0 | 0.0 | 0.00 | 0.00 | 0.00 | 51 | 1011.2 |
| 20260905224042 | 95 | 172 | 0.0 | 0.0 | 0.00 | 0.00 | 0.00 | 51 | 1011.3 |
| 20260905223541 | 96 | 206 | 0.0 | 0.0 | 0.00 | 0.00 | 0.00 | 51 | 1011.4 |
| 20260905223036 | 95 | 206 | 0.0 | 0.0 | 0.00 | 0.00 | 0.00 | 51 | 1011.5 |
| 20260905222531 | 96 | 206 | 0.0 | 0.0 | 0.00 | 0.00 | 0.00 | 52 | 1011.4 |
| 20260905222026 | 96 | 270 | 0.0 | 0.0 | 0.00 | 0.00 | 0.00 | 52 | 1011.5 |
| 20260905221523 | 96 | 210 | 0.0 | 1.0 | 0.00 | 0.00 | 0.00 | 53 | 1011.5 |
| 20260905221019 | 96 | 210 | 0.0 | 0.0 | 0.00 | 0.00 | 0.00 | 55 | 1011.5 |
| 20260905220514 | 95 | 210 | 0.0 | 0.0 | 0.00 | 0.00 | 0.00 | 55 | 1011.4 |
| 20260905220010 | 95 | 340 | 0.0 | 2.0 | 0.00 | 0.00 | 0.00 | 55 | 1011.5 |
| 20260905215505 | 94 | 353 | 0.0 | 2.0 | 0.00 | 0.00 | 0.00 | 55 | 1011.5 |
| 20260905215000 | 95 | 226 | 0.0 | 1.0 | 0.00 | 0.00 | 0.00 | 55 | 1011.6 |
| 20260905214456 | 95 | 235 | 0.0 | 1.0 | 0.00 | 0.00 | 0.00 | 55 | 1011.4 |
| 20260905213956 | 95 | 228 | 0.0 | 0.0 | 0.00 | 0.00 | 0.00 | 54 | 1011.4 |
| 20260905213452 | 95 | 228 | 0.0 | 1.0 | 0.00 | 0.00 | 0.00 | 54 | 1011.5 |
| 20260905212947 | 95 | 219 | 0.0 | 1.0 | 0.00 | 0.00 | 0.00 | 54 | 1011.2 |
| 20260905212442 | 95 | 219 | 1.0 | 2.0 | 0.00 | 0.00 | 0.00 | 53 | 1011.4 |
| 20260905211940 | 95 | 223 | 1.0 | 2.0 | 0.00 | 0.00 | 0.00 | 52 | 1011.5 |
| 20260905211431 | 95 | 215 | 0.0 | 2.0 | 0.00 | 0.00 | 0.00 | 53 | 1011.5 |
| 20260905210926 | 96 | 200 | 1.0 | 3.0 | 0.00 | 0.00 | 0.00 | 52 | 1011.4 |
| 20260905210421 | 97 | 222 | 2.0 | 4.0 | 0.00 | 0.00 | 0.00 | 50 | 1011.6 |
| 20260905205920 | 98 | 216 | 0.0 | 0.0 | 0.00 | 0.00 | 0.00 | 49 | 1011.6 |
| 20260905205415 | 97 | 216 | 0.0 | 0.0 | 0.00 | 0.00 | 0.00 | 48 | 1011.6 |
| 20260905204914 | 98 | 216 | 0.0 | 0.0 | 0.00 | 0.00 | 0.00 | 47 | 1011.8 |
| 20260905204410 | 98 | 216 | 0.0 | 1.0 | 0.00 | 0.00 | 0.00 | 48 | 1011.6 |
| 20260905203909 | 98 | 238 | 1.0 | 1.0 | 0.00 | 0.00 | 0.00 | 47 | 1012.0 |
| 20260905203405 | 98 | 249 | 0.0 | 1.0 | 0.00 | 0.00 | 0.00 | 47 | 1012.0 |
| 20260905202900 | 99 | 254 | 1.0 | 1.0 | 0.00 | 0.00 | 0.00 | 47 | 1012.1 |
| 20260905202355 | 100 | 253 | 0.0 | 1.0 | 0.00 | 0.00 | 0.00 | 46 | 1012.3 |
| 20260905201850 | 99 | 293 | 0.0 | 0.0 | 0.00 | 0.00 | 0.00 | 46 | 1012.3 |
| 20260905201346 | 99 | 79 | 0.0 | 1.0 | 0.00 | 0.00 | 0.00 | 46 | 1012.3 |
| 20260905200840 | 98 | 325 | 1.0 | 2.0 | 0.00 | 0.00 | 0.00 | 48 | 1012.3 |
| 20260905200336 | 98 | 202 | 0.0 | 1.0 | 0.00 | 0.00 | 0.00 | 49 | 1012.5 |
| 20260905195833 | 99 | 295 | 0.0 | 2.0 | 0.00 | 0.00 | 0.00 | 47 | 1012.6 |
| 20260905195328 | 98 | 93 | 0.0 | 3.0 | 0.00 | 0.00 | 0.00 | 47 | 1012.5 |
| 20260905194825 | 100 | 314 | 2.0 | 3.0 | 0.00 | 0.00 | 0.00 | 45 | 1012.8 |
| 20260905194319 | 99 | 257 | 0.0 | 2.0 | 0.00 | 0.00 | 0.00 | 43 | 1012.8 |
| 20260905193818 | 100 | 303 | 0.0 | 1.0 | 0.00 | 0.00 | 0.00 | 44 | 1012.8 |
| 20260905193313 | 101 | 16 | 1.0 | 1.0 | 0.00 | 0.00 | 0.00 | 42 | 1012.9 |
| 20260905192809 | 100 | 356 | 0.0 | 4.0 | 0.00 | 0.00 | 0.00 | 43 | 1012.9 |
| 20260905192306 | 101 | 12 | 1.0 | 3.0 | 0.00 | 0.00 | 0.00 | 43 | 1012.9 |
| 20260905191804 | 100 | 8 | 2.0 | 3.0 | 0.00 | 0.00 | 0.00 | 44 | 1013.0 |
| 20260905191302 | 100 | 134 | 0.0 | 0.0 | 0.00 | 0.00 | 0.00 | 44 | 1013.2 |
| 20260905190801 | 101 | 167 | 1.0 | 2.0 | 0.00 | 0.00 | 0.00 | 44 | 1013.0 |
| 20260905190254 | 102 | 180 | 2.0 | 4.0 | 0.00 | 0.00 | 0.00 | 43 | 1013.1 |
| 20260905185753 | 102 | 195 | 1.0 | 2.0 | 0.00 | 0.00 | 0.00 | 43 | 1013.2 |
| 20260905185248 | 102 | 28 | 0.0 | 1.0 | 0.00 | 0.00 | 0.00 | 43 | 1013.3 |
| 20260905184742 | 102 | 33 | 0.0 | 2.0 | 0.00 | 0.00 | 0.00 | 43 | 1013.1 |
| 20260905184241 | 101 | 194 | 0.0 | 1.0 | 0.00 | 0.00 | 0.00 | 45 | 1013.4 |
| 20260905183735 | 102 | 161 | 2.0 | 2.0 | 0.00 | 0.00 | 0.00 | 43 | 1013.5 |
| 20260905183231 | 101 | 237 | 1.0 | 2.0 | 0.00 | 0.00 | 0.00 | 44 | 1013.4 |
| 20260905182725 | 101 | 215 | 0.0 | 2.0 | 0.00 | 0.00 | 0.00 | 44 | 1013.6 |
| 20260905182224 | 101 | 18 | 0.0 | 2.0 | 0.00 | 0.00 | 0.00 | 43 | 1013.6 |
| 20260905181714 | 101 | 174 | 1.0 | 2.0 | 0.00 | 0.00 | 0.00 | 44 | 1013.6 |
| 20260905181213 | 102 | 40 | 4.0 | 4.0 | 0.00 | 0.00 | 0.00 | 43 | 1013.6 |
| 20260905180708 | 101 | 339 | 0.0 | 2.0 | 0.00 | 0.00 | 0.00 | 44 | 1013.7 |
| 20260905180203 | 101 | 217 | 0.0 | 1.0 | 0.00 | 0.00 | 0.00 | 45 | 1013.6 |
| 20260905175703 | 101 | 133 | 1.0 | 1.0 | 0.00 | 0.00 | 0.00 | 43 | 1013.8 |
| 20260905175157 | 100 | 104 | 1.0 | 2.0 | 0.00 | 0.00 | 0.00 | 45 | 1013.9 |
| 20260905174653 | 100 | 180 | 2.0 | 3.0 | 0.00 | 0.00 | 0.00 | 44 | 1013.8 |
| 20260905174149 | 101 | 205 | 1.0 | 1.0 | 0.00 | 0.00 | 0.00 | 44 | 1013.9 |
| 20260905173644 | 100 | 151 | 0.0 | 1.0 | 0.00 | 0.00 | 0.00 | 44 | 1013.8 |
| 20260905173140 | 101 | 162 | 1.0 | 2.0 | 0.00 | 0.00 | 0.00 | 44 | 1013.8 |
| 20260905172639 | 101 | 159 | 0.0 | 2.0 | 0.00 | 0.00 | 0.00 | 43 | 1014.0 |
| 20260905172139 | 101 | 57 | 2.0 | 4.0 | 0.00 | 0.00 | 0.00 | 44 | 1014.0 |
| 20260905171635 | 100 | 18 | 1.0 | 3.0 | 0.00 | 0.00 | 0.00 | 45 | 1014.1 |
| 20260905171131 | 102 | 107 | 1.0 | 1.0 | 0.00 | 0.00 | 0.00 | 43 | 1014.4 |
| 20260905170628 | 102 | 107 | 1.0 | 1.0 | 0.00 | 0.00 | 0.00 | 43 | 1014.4 |
| 20260905170123 | 101 | 49 | 0.0 | 1.0 | 0.00 | 0.00 | 0.00 | 44 | 1014.2 |
| 20260905165623 | 101 | 90 | 0.0 | 0.0 | 0.00 | 0.00 | 0.00 | 46 | 1014.4 |
| 20260905165118 | 100 | 16 | 0.0 | 3.0 | 0.00 | 0.00 | 0.00 | 44 | 1014.4 |
| 20260905164613 | 100 | 81 | 2.0 | 3.0 | 0.00 | 0.00 | 0.00 | 44 | 1014.7 |
| 20260905164112 | 99 | 149 | 0.0 | 1.0 | 0.00 | 0.00 | 0.00 | 45 | 1014.7 |
| 20260905163609 | 99 | 179 | 0.0 | 3.0 | 0.00 | 0.00 | 0.00 | 46 | 1014.7 |
| 20260905163105 | 100 | 166 | 0.0 | 1.0 | 0.00 | 0.00 | 0.00 | 45 | 1014.8 |
| 20260905162601 | 100 | 160 | 0.0 | 2.0 | 0.00 | 0.00 | 0.00 | 45 | 1014.8 |
| 20260905162101 | 99 | 127 | 0.0 | 1.0 | 0.00 | 0.00 | 0.00 | 45 | 1015.0 |
| 20260905161600 | 99 | 128 | 0.0 | 2.0 | 0.00 | 0.00 | 0.00 | 46 | 1014.9 |
| 20260905161058 | 99 | 333 | 2.0 | 2.0 | 0.00 | 0.00 | 0.00 | 48 | 1015.0 |
| 20260905160557 | 99 | 352 | 1.0 | 2.0 | 0.00 | 0.00 | 0.00 | 47 | 1014.7 |
| 20260905160052 | 98 | 234 | 0.0 | 1.0 | 0.00 | 0.00 | 0.00 | 47 | 1014.8 |
| 20260905155551 | 98 | 223 | 2.0 | 2.0 | 0.00 | 0.00 | 0.00 | 49 | 1015.1 |
| 20260905155050 | 98 | 251 | 1.0 | 1.0 | 0.00 | 0.00 | 0.00 | 49 | 1014.7 |
| 20260905154545 | 98 | 288 | 2.0 | 2.0 | 0.00 | 0.00 | 0.00 | 48 | 1015.1 |
| 20260905154041 | 98 | 324 | 2.0 | 2.0 | 0.00 | 0.00 | 0.00 | 50 | 1015.0 |
| 20260905153536 | 97 | 343 | 0.0 | 1.0 | 0.00 | 0.00 | 0.00 | 53 | 1015.1 |
| 20260905153031 | 97 | 308 | 0.0 | 0.0 | 0.00 | 0.00 | 0.00 | 51 | 1015.0 |